Погода в Бубнове

Россия / Смоленская область     54°42′05″N   32°14′40″E
В апреле 2022 года жителям России запретили посещать сайт meteo.paraplan.net по решению Генеральной прокуратуры. Аудитория сайта уменьшилась в 10 раз. Владельцы сайта не видят смысла в поддержке погодного сервера в таких условиях. Сайт будет закрыт в октябре.
темп.,
°C
ветер,
м/с
пор.,
м/с
влажн.,
%
обл.,
%
осадки,
мм/ч
давл.,
гПа
погр.,
м
29 сентября, чт
чт2900:00+7в3586100 0.1 1003227
03:00+7всв2397100 4.3 1003130
06:00+8ююз279877 0.9 1003332
09:00+9зюз469163 0.9 1005410
12:00+12юз467281 0.0 1007756
15:00+14ююз6864100 0.0 10071105
18:00+13ю5117462 0.0 1008408
21:00+12ююз51373100 0.0 1009570
30 сентября, пт
пт3000:00+11ю41176100 0.0 1009410
03:00+9юв3691100 1.6 1010184
06:00+10ю3789100 0.3 1010258
09:00+10ююз2495100 2.0 1012185
12:00+13з2384100 0.0 1013640
15:00+13з238095 0.1 1014495
18:00+12юз117899 0.0 101510
21:00+9з1187100 0.0 101610
1 октября, сб
сб100:00+9сз118693 0.0 101710
03:00+8св1187100 0.0 101710
06:00+8св2494100 1.6 1016122
09:00+9всв3597100 4.7 1016226
12:00+9всв4996100 2.0 1014365
15:00+9св3697100 3.6 1012329
18:00+9ссв2498100 0.5 1012270
21:00+8с2497100 0.6 1011281
2 октября, вс
вс200:00+8ссз249799 0.0 1011220
03:00+8ссз2497100 0.0 1012183
06:00+8ссз2297100 0.0 101284
09:00+9св119299 0.0 1012185
12:00+11св2279100 0.0 1012656
15:00+11всв3481100 0.0 1012466
18:00+10всв2487100 0.0 1012126
21:00+9всв2592100 0.1 1011154
3 октября, пн
пн300:00+9всв4796100 2.4 1010303
03:00+8св4897100 6.3 1008329
06:00+9с51097100 4.3 1004424
09:00+9ссв91596100 10.9 1000729
12:00+9ссв81495100 7.1 997635
15:00+10ссв61198100 14.9 993342
18:00+13всв51297100 7.1 991595
21:00+13всв61396100 8.3 990669